Huntingburg, IN

1:52 AM EDT on September 26, 2017 (GMT -0400)
Huntingburg

Weather History for KHNB - January, 2013

Change the Weather History Date:

Sunday, January 13, 2013

  Actual Average Record
Temperature  
Mean Temperature 46 °F -  
Max Temperature 66 °F 36 °F 66 °F (2013)
Min Temperature 26 °F 22 °F -2 °F (1997)
Degree Days  
Heating Degree Days 19    
Moisture  
Dew Point 35 °F    
Average Humidity 87    
Maximum Humidity 100    
Minimum Humidity 74    
Precipitation  
Precipitation 1.85 in - - ()
Sea Level Pressure  
Sea Level Pressure 29.99 in    
Wind  
Wind Speed 13 mph (NW)    
Max Wind Speed 28 mph    
Max Gust Speed 31 mph    
Visibility 8 miles    
Events Thunderstorm    
Averages and records for this station are not official NWS values.
T = Trace of Precipitation, MM = Missing Value Source: NWS Daily Summary

Daily Weather History Graph

Daily Weather History Graph

Search for Another Location

Airport or City:

Trip Planner

Search our weather history database for the weather conditions in past years. The results will help you decide how hot, cold, wet, or windy it might be!

Date:

Astronomy

Jan. 13, 2013 Rise Set
Actual Time 8:03 AM EST 5:49 PM EST
Civil Twilight 7:34 AM EST 6:18 PM EST
Nautical Twilight 7:02 AM EST 6:51 PM EST
Astronomical Twilight 6:30 AM EST 7:23 PM EST
Moon 9:04 AM EST (1/13) 8:24 PM EST (1/13)
Length of Visible Light 10h 44m
Length of Day
9h 46m
Waxing Crescent, 5% of the Moon is Illuminated
Jan 13
Waxing Crescent
Jan 18
First Quarter
Jan 26
Full
Feb 3
Last Quarter
Feb 10
New

Hourly Weather History & Observations

Time (EST) Temp. Windchill Dew Point Humidity Pressure Visibility Wind Dir Wind Speed Gust Speed Precip Events Conditions
12:35 AM 66.2 °F - 60.8 °F 83% 29.72 in 10.0 mi South 20.7 mph 29.9 mph N/A   Scattered Clouds
12:55 AM 66.2 °F - 60.8 °F 83% 29.78 in 10.0 mi West 27.6 mph 31.1 mph N/A Thunderstorm Mostly Cloudy
1:15 AM 59.0 °F - 55.4 °F 88% 29.79 in 8.0 mi West 15.0 mph 19.6 mph 0.37 in   Mostly Cloudy
1:35 AM 57.2 °F - 55.4 °F 94% 29.79 in 10.0 mi SW 6.9 mph - 0.58 in Thunderstorm Thunderstorm
1:55 AM 57.2 °F - 55.4 °F 94% 29.78 in 10.0 mi WSW 5.8 mph - 0.63 in   Overcast
2:35 AM 57.2 °F - 55.4 °F 94% 29.82 in 10.0 mi South 6.9 mph - 0.11 in   Overcast
2:55 AM 57.2 °F - 55.4 °F 94% 29.81 in 10.0 mi Calm Calm - 0.18 in   Overcast
3:15 AM 55.4 °F - 55.4 °F 100% 29.84 in 10.0 mi WNW 16.1 mph 21.9 mph 0.07 in   Overcast
3:35 AM 51.8 °F - 48.2 °F 88% 29.86 in 10.0 mi WNW 16.1 mph - 0.14 in   Overcast
3:55 AM 48.2 °F - 46.4 °F 93% 29.85 in 10.0 mi NNW 10.4 mph 16.1 mph 0.22 in   Overcast
4:15 AM 46.4 °F 41.9 °F 42.8 °F 87% 29.84 in 10.0 mi North 9.2 mph - 0.04 in   Overcast
4:35 AM 44.6 °F 38.4 °F 42.8 °F 93% 29.89 in 10.0 mi NW 12.7 mph - 0.12 in   Overcast
5:15 AM 41.0 °F 35.2 °F 37.4 °F 87% 29.86 in 10.0 mi North 9.2 mph - N/A   Overcast
5:35 AM 41.0 °F 35.8 °F 37.4 °F 87% 29.87 in 10.0 mi North 8.1 mph - N/A   Overcast
5:55 AM 41.0 °F 36.4 °F 37.4 °F 87% 29.91 in 10.0 mi NW 6.9 mph - N/A   Mostly Cloudy
6:15 AM 39.2 °F 35.0 °F 37.4 °F 93% 29.89 in 10.0 mi NNE 5.8 mph - N/A   Overcast
6:35 AM 41.0 °F 36.4 °F 37.4 °F 87% 29.87 in 9.0 mi ENE 6.9 mph - N/A   Mostly Cloudy
6:55 AM 41.0 °F 33.5 °F 37.4 °F 87% 29.92 in 10.0 mi NW 13.8 mph - 0.15 in   Overcast
7:15 AM 39.2 °F 33.6 °F 37.4 °F 93% 29.88 in 9.0 mi NNE 8.1 mph - 0.02 in   Overcast
7:35 AM 39.2 °F 35.0 °F 37.4 °F 93% 29.87 in 8.0 mi ENE 5.8 mph - 0.03 in   Overcast
7:55 AM 41.0 °F 33.5 °F 37.4 °F 87% 29.93 in 10.0 mi WNW 13.8 mph - 0.03 in   Overcast
8:15 AM 39.2 °F 34.2 °F 35.6 °F 87% 29.92 in 10.0 mi WNW 6.9 mph - N/A   Overcast
8:35 AM 39.2 °F 33.0 °F 35.6 °F 87% 29.95 in 1.8 mi WNW 9.2 mph - N/A   Overcast
8:55 AM 39.2 °F 32.0 °F 35.6 °F 87% 29.96 in 1.8 mi NW 11.5 mph - 0.01 in   Overcast
9:15 AM 39.2 °F 34.2 °F 35.6 °F 87% 29.94 in 2.0 mi NNW 6.9 mph 16.1 mph N/A   Overcast
9:35 AM 39.2 °F 32.0 °F 35.6 °F 87% 29.95 in 4.0 mi NNW 11.5 mph - N/A   Overcast
9:55 AM 39.2 °F 32.5 °F 35.6 °F 87% 29.96 in 5.0 mi NW 10.4 mph - N/A   Overcast
10:15 AM 39.2 °F 32.0 °F 35.6 °F 87% 29.96 in 5.0 mi NNW 11.5 mph - N/A   Overcast
10:35 AM 39.2 °F 33.0 °F 35.6 °F 87% 29.95 in 3.0 mi NNW 9.2 mph - N/A   Overcast
10:55 AM 39.2 °F 33.0 °F 35.6 °F 87% 29.95 in 3.0 mi NNW 9.2 mph - N/A   Overcast
11:15 AM 39.2 °F 32.5 °F 35.6 °F 87% 29.97 in 3.0 mi NW 10.4 mph - N/A   Overcast
11:35 AM 39.2 °F 32.5 °F 35.6 °F 87% 29.97 in 1.5 mi NW 10.4 mph - 0.01 in   Overcast
11:55 AM 37.4 °F 30.3 °F 35.6 °F 93% 29.97 in 1.8 mi NW 10.4 mph - 0.01 in   Overcast
12:15 PM 37.4 °F 32.1 °F 35.6 °F 93% 29.93 in 4.0 mi North 6.9 mph - N/A   Overcast
12:35 PM 37.4 °F 32.1 °F 35.6 °F 93% 29.91 in 7.0 mi North 6.9 mph - 0.03 in   Overcast
12:55 PM 37.4 °F 33.8 °F 35.6 °F 93% 29.91 in 9.0 mi NNW 4.6 mph - 0.07 in   Overcast
1:15 PM 37.4 °F 31.4 °F 35.6 °F 93% 29.91 in 9.0 mi NW 8.1 mph - 0.01 in   Overcast
1:35 PM 37.4 °F 28.2 °F 35.6 °F 93% 29.94 in 8.0 mi WNW 16.1 mph - 0.06 in   Overcast
1:55 PM 37.4 °F 28.9 °F 33.8 °F 87% 29.95 in 9.0 mi NW 13.8 mph 23.0 mph 0.11 in   Overcast
2:15 PM 35.6 °F 26.2 °F 33.8 °F 93% 29.95 in 4.0 mi NNW 15.0 mph 23.0 mph 0.08 in   Overcast
2:35 PM 35.6 °F 26.6 °F 32.0 °F 87% 29.95 in 2.5 mi NW 13.8 mph 23.0 mph 0.14 in   Overcast
2:55 PM 33.8 °F 24.3 °F 30.2 °F 87% 29.96 in 2.0 mi NNW 13.8 mph 23.0 mph 0.20 in   Overcast
3:15 PM 33.8 °F 23.5 °F 30.2 °F 87% 29.98 in 5.0 mi NW 16.1 mph 20.7 mph 0.03 in   Overcast
3:35 PM 33.8 °F 24.8 °F 28.4 °F 81% 29.98 in 4.0 mi NNW 12.7 mph 20.7 mph 0.04 in   Overcast
3:55 PM 33.8 °F 23.9 °F 30.2 °F 87% 29.99 in 3.0 mi NNW 15.0 mph - 0.06 in   Overcast
4:15 PM 33.8 °F 25.8 °F 28.4 °F 81% 30.01 in 2.0 mi NNW 10.4 mph - 0.03 in   Overcast
4:35 PM 33.8 °F 24.3 °F 30.2 °F 87% 30.05 in 1.2 mi NW 13.8 mph 18.4 mph 0.05 in   Overcast
4:55 PM 33.8 °F 24.3 °F 30.2 °F 87% 30.05 in 4.0 mi NW 13.8 mph 19.6 mph 0.06 in   Overcast
5:15 PM 33.8 °F 22.8 °F 28.4 °F 81% 30.05 in 10.0 mi NW 18.4 mph 23.0 mph N/A   Overcast
5:35 PM 33.8 °F 24.3 °F 28.4 °F 81% 30.07 in 10.0 mi NW 13.8 mph 21.9 mph N/A   Overcast
5:55 PM 33.8 °F 24.8 °F 28.4 °F 81% 30.10 in 10.0 mi NW 12.7 mph 21.9 mph N/A   Overcast
6:15 PM 33.8 °F 24.8 °F 28.4 °F 81% 30.11 in 10.0 mi NW 12.7 mph 18.4 mph N/A   Overcast
6:35 PM 32.0 °F 22.1 °F 28.4 °F 87% 30.12 in 10.0 mi NW 13.8 mph - N/A   Overcast
6:55 PM 32.0 °F 20.8 °F 28.4 °F 87% 30.12 in 10.0 mi NW 17.3 mph 23.0 mph N/A   Overcast
7:15 PM 32.0 °F 21.2 °F 28.4 °F 87% 30.14 in 10.0 mi NW 16.1 mph 23.0 mph N/A   Overcast
7:35 PM 30.2 °F 20.2 °F 28.4 °F 93% 30.16 in 10.0 mi NW 12.7 mph 20.7 mph N/A   Overcast
7:55 PM 30.2 °F 18.5 °F 26.6 °F 86% 30.16 in 10.0 mi NW 17.3 mph - N/A   Overcast
8:15 PM 30.2 °F 19.8 °F 24.8 °F 80% 30.17 in 10.0 mi NW 13.8 mph 21.9 mph N/A   Overcast
8:35 PM 28.4 °F 16.2 °F 24.8 °F 86% 30.17 in 10.0 mi NW 17.3 mph 24.2 mph N/A   Overcast
8:55 PM 28.4 °F 18.0 °F 24.8 °F 86% 30.18 in 10.0 mi NW 12.7 mph 20.7 mph N/A   Overcast
9:15 PM 28.4 °F 18.5 °F 23.0 °F 80% 30.20 in 10.0 mi WNW 11.5 mph - N/A   Overcast
9:35 PM 28.4 °F 19.1 °F 21.2 °F 74% 30.21 in 10.0 mi NW 10.4 mph 17.3 mph N/A   Mostly Cloudy
9:55 PM 26.6 °F 15.2 °F 21.2 °F 80% 30.21 in 10.0 mi NW 13.8 mph 17.3 mph N/A   Partly Cloudy
10:15 PM 26.6 °F 16.8 °F 21.2 °F 80% 30.22 in 10.0 mi NW 10.4 mph - N/A   Partly Cloudy
10:35 PM 26.6 °F 16.8 °F 21.2 °F 80% 30.23 in 10.0 mi NW 10.4 mph - N/A   Mostly Cloudy
10:55 PM 26.6 °F 16.8 °F 21.2 °F 80% 30.24 in 10.0 mi NW 10.4 mph - N/A   Overcast
11:15 PM 26.6 °F 16.2 °F 19.4 °F 74% 30.25 in 10.0 mi NNW 11.5 mph - N/A   Overcast
11:35 PM 26.6 °F 14.7 °F 19.4 °F 74% 30.26 in 10.0 mi NNW 15.0 mph - N/A   Overcast
11:55 PM 26.6 °F 16.8 °F 19.4 °F 74% 30.27 in 10.0 mi NW 10.4 mph - N/A   Overcast